CEB915 RPVB-RPVM

Flight info

Callsign CEB915
Flight time 0h 20m
Altitude 13000
Route VIC2A VICTA B473 DELOR DELOR3P
Aircraft A320/M-SDE3FGHIRWY/LB1

Departure

Time 2026-04-22 05:41
Airport Bacolod-Silay International Airport (RPVB)

Arrival

Time 2026-04-22 06:02
Airport Mactan Cebu International Airport (RPVM)
Time Latitude Longitude Altitude Speed Heading
2026-04-22 05:27 10.77676 123.01578 85 ft 0 kts 300°
2026-04-22 05:34 10.77676 123.01579 85 ft 2 kts 300°
2026-04-22 05:34 10.77668 123.01594 90 ft 2 kts 294°
2026-04-22 05:34 10.77662 123.01610 84 ft 2 kts 284°
2026-04-22 05:34 10.77660 123.01626 83 ft 2 kts 268°
2026-04-22 05:35 10.77662 123.01643 83 ft 2 kts 243°
2026-04-22 05:35 10.77672 123.01656 83 ft 2 kts 219°
2026-04-22 05:35 10.77680 123.01663 84 ft 1 kts 211°
2026-04-22 05:36 10.77677 123.01661 85 ft 2 kts 211°
2026-04-22 05:37 10.77647 123.01643 85 ft 7 kts 210°
2026-04-22 05:37 10.77593 123.01611 85 ft 11 kts 210°
2026-04-22 05:37 10.77517 123.01566 85 ft 15 kts 210°
2026-04-22 05:37 10.77418 123.01515 85 ft 16 kts 202°
2026-04-22 05:38 10.77353 123.01535 84 ft 10 kts 129°
2026-04-22 05:38 10.77314 123.01606 84 ft 13 kts 118°
2026-04-22 05:38 10.77262 123.01665 83 ft 6 kts 162°
2026-04-22 05:38 10.77219 123.01652 84 ft 7 kts 211°
2026-04-22 05:39 10.77167 123.01623 86 ft 10 kts 209°
2026-04-22 05:39 10.77074 123.01568 86 ft 22 kts 213°
2026-04-22 05:39 10.76945 123.01475 85 ft 16 kts 245°
2026-04-22 05:39 10.76939 123.01456 85 ft 4 kts 240°
2026-04-22 05:40 10.76904 123.01443 86 ft 4 kts 166°
2026-04-22 05:40 10.76900 123.01452 86 ft 2 kts 93°
2026-04-22 05:40 10.76913 123.01475 86 ft 0 kts 33°
2026-04-22 05:41 10.76919 123.01478 85 ft 6 kts 30°
2026-04-22 05:41 10.77185 123.01634 84 ft 88 kts 30°
2026-04-22 05:41 10.77934 123.02069 139 ft 153 kts 31°
2026-04-22 05:41 10.78895 123.02643 880 ft 166 kts 31°
2026-04-22 05:42 10.79921 123.03225 1905 ft 170 kts 31°
2026-04-22 05:42 10.80956 123.03816 2795 ft 177 kts 34°
2026-04-22 05:42 10.82081 123.04509 3246 ft 202 kts 34°
2026-04-22 05:42 10.83367 123.05294 3741 ft 228 kts 33°
2026-04-22 05:43 10.84797 123.06158 4336 ft 251 kts 33°
2026-04-22 05:43 10.86425 123.06997 4905 ft 272 kts 24°
2026-04-22 05:43 10.88202 123.07693 5779 ft 277 kts 23°
2026-04-22 05:43 10.89988 123.08428 6712 ft 279 kts 25°
2026-04-22 05:44 10.91582 123.09545 7506 ft 282 kts 50°
2026-04-22 05:44 10.92530 123.11289 8293 ft 287 kts 76°
2026-04-22 05:44 10.92617 123.13322 9058 ft 293 kts 102°
2026-04-22 05:44 10.91800 123.15225 9804 ft 299 kts 129°
2026-04-22 05:45 10.90234 123.16625 10429 ft 308 kts 149°
2026-04-22 05:45 10.88301 123.17738 10686 ft 331 kts 154°
2026-04-22 05:45 10.86194 123.18851 11014 ft 349 kts 154°
2026-04-22 05:45 10.84042 123.20023 11743 ft 353 kts 153°
2026-04-22 05:46 10.81885 123.21243 12489 ft 357 kts 152°
2026-04-22 05:46 10.79714 123.22501 12822 ft 360 kts 152°
2026-04-22 05:46 10.77548 123.23772 12877 ft 359 kts 152°
2026-04-22 05:46 10.75388 123.25044 12887 ft 361 kts 151°
2026-04-22 05:47 10.73315 123.26493 12881 ft 362 kts 143°
2026-04-22 05:47 10.71440 123.28200 12872 ft 362 kts 139°
2026-04-22 05:47 10.69588 123.29935 12879 ft 362 kts 139°
2026-04-22 05:47 10.67729 123.31662 12879 ft 362 kts 139°
2026-04-22 05:48 10.65869 123.33386 12886 ft 362 kts 139°
2026-04-22 05:48 10.64012 123.35108 12884 ft 360 kts 139°
2026-04-22 05:48 10.62184 123.36803 12884 ft 361 kts 139°
2026-04-22 05:48 10.60303 123.38547 12885 ft 361 kts 139°
2026-04-22 05:49 10.58446 123.40269 12882 ft 362 kts 139°
2026-04-22 05:49 10.56615 123.41967 12886 ft 361 kts 139°
2026-04-22 05:49 10.54737 123.43706 12864 ft 360 kts 139°
2026-04-22 05:49 10.52893 123.45414 12308 ft 359 kts 139°
2026-04-22 05:50 10.51031 123.47136 11253 ft 366 kts 139°
2026-04-22 05:50 10.49124 123.48898 10088 ft 373 kts 138°
2026-04-22 05:50 10.47241 123.50639 9639 ft 356 kts 138°
2026-04-22 05:50 10.45470 123.52279 9408 ft 333 kts 138°
2026-04-22 05:51 10.43835 123.53794 9211 ft 312 kts 138°
2026-04-22 05:51 10.42281 123.55234 8998 ft 294 kts 137°
2026-04-22 05:51 10.40798 123.56607 8853 ft 290 kts 137°
2026-04-22 05:51 10.39293 123.58000 8642 ft 294 kts 137°
2026-04-22 05:52 10.37782 123.59397 8298 ft 292 kts 137°
2026-04-22 05:52 10.36286 123.60780 7924 ft 291 kts 137°
2026-04-22 05:52 10.34794 123.62160 7532 ft 289 kts 137°
2026-04-22 05:52 10.33334 123.63547 7174 ft 285 kts 135°
2026-04-22 05:53 10.31935 123.64967 6768 ft 283 kts 133°
2026-04-22 05:53 10.30564 123.66389 6402 ft 280 kts 133°
2026-04-22 05:53 10.29208 123.67792 6030 ft 277 kts 133°
2026-04-22 05:53 10.27863 123.69174 5680 ft 274 kts 133°
2026-04-22 05:54 10.26520 123.70543 5317 ft 273 kts 133°
2026-04-22 05:54 10.25186 123.71904 4943 ft 271 kts 133°
2026-04-22 05:54 10.23864 123.73252 4585 ft 267 kts 133°
2026-04-22 05:54 10.22556 123.74586 4212 ft 267 kts 133°
2026-04-22 05:55 10.21247 123.75921 3827 ft 268 kts 133°
2026-04-22 05:55 10.19932 123.77255 3482 ft 266 kts 133°
2026-04-22 05:55 10.18630 123.78574 3152 ft 263 kts 133°
2026-04-22 05:55 10.17357 123.79869 3013 ft 254 kts 131°
2026-04-22 05:56 10.16510 123.81316 2903 ft 229 kts 102°
2026-04-22 05:56 10.16524 123.82836 2749 ft 208 kts 72°
2026-04-22 05:56 10.17202 123.84047 2628 ft 192 kts 47°
2026-04-22 05:56 10.18107 123.84923 2561 ft 167 kts 46°
2026-04-22 05:57 10.18864 123.85680 2487 ft 138 kts 47°
2026-04-22 05:57 10.19506 123.86337 2505 ft 132 kts 48°
2026-04-22 05:57 10.20148 123.86998 2481 ft 127 kts 48°
2026-04-22 05:57 10.20779 123.87646 2509 ft 139 kts 47°
2026-04-22 05:58 10.21467 123.88343 2458 ft 133 kts 47°
2026-04-22 05:58 10.22116 123.88992 2233 ft 131 kts 47°
2026-04-22 05:58 10.22758 123.89640 2085 ft 131 kts 47°
2026-04-22 05:58 10.23400 123.90285 1907 ft 130 kts 47°
2026-04-22 05:59 10.24052 123.90940 1738 ft 134 kts 47°
2026-04-22 05:59 10.24698 123.91590 1557 ft 128 kts 47°
2026-04-22 05:59 10.25320 123.92215 1400 ft 128 kts 46°
2026-04-22 05:59 10.25956 123.92853 1216 ft 126 kts 47°
2026-04-22 06:00 10.26593 123.93493 1056 ft 130 kts 46°
2026-04-22 06:00 10.27215 123.94118 848 ft 124 kts 46°
2026-04-22 06:00 10.27818 123.94731 716 ft 121 kts 46°
2026-04-22 06:00 10.28430 123.95345 571 ft 127 kts 45°
2026-04-22 06:01 10.29073 123.95997 345 ft 130 kts 43°
2026-04-22 06:01 10.29690 123.96618 185 ft 123 kts 43°
2026-04-22 06:01 10.30318 123.97236 70 ft 128 kts 43°
2026-04-22 06:01 10.30896 123.97817 37 ft 88 kts 44°
2026-04-22 06:02 10.31154 123.98076 38 ft 38 kts 44°
2026-04-22 06:02 10.31334 123.98256 40 ft 31 kts 43°
2026-04-22 06:02 10.31452 123.98282 39 ft 11 kts 327°
2026-04-22 06:02 10.31472 123.98259 39 ft 3 kts 289°